Location: El Bakhil
(32.7726°N, 5.5387°W)
Time: 21:09:33
(UTC+00:00)

N. Korean satellite - Pass Details

Date: 03 December 2021
Orbit: 447 x 490 km, 97.3° (Epoch: 27 January)

Event Time Altitude Azimuth Distance (km) Brightness Sun altitude
Rises 05:23:23 0° 14° (NNE) 2,454 10.2 -21.6°
Reaches altitude 10° 05:25:26 10° 17° (NNE) 1,576 9.2 -21.2°
Maximum altitude 05:28:47 66° 100° (E) 489 6.7 -20.5°
Drops below altitude 10° 05:32:07 10° 184° (S) 1,566 9.2 -19.8°
Sets 05:34:08 0° 187° (S) 2,436 10.2 -19.4°
